Regional Weather Roundup
Issued by NWS Little Rock, AR

Home | Current Version | Previous Version | Text Only | Print | Product List | Glossary Off
Versions: 1 2 3 4 5 6 7 8 9 10 11 12 13 14 15 16 17 18 19 20 21 22 23 24 25 26 27 28 29 30 31 32 33 34 35 36 37 38 39 40 41 42 43 44 45 46 47 48 49 50

690
ASUS44 KLZK 202300
RWRLZK
ARKANSAS STATE WEATHER ROUNDUP
NATIONAL WEATHER SERVICE LITTLE ROCK AR
ISSUED BY NATIONAL WEATHER SERVICE MEMPHIS TN
600 PM CDT WED SEP 20 2017

NOTE: "FAIR" INDICATES FEW OR NO CLOUDS BELOW 12,000 FEET WITH NO
SIGNIFICANT WEATHER AND/OR OBSTRUCTIONS TO VISIBILITY.

ARZ001-003-010-029-210000-
NORTHWEST ARKANSAS

CITY           SKY/WX    TMP DP  RH WIND       PRES   REMARKS
FORT SMITH     PTSUNNY   93  70  46 S9        29.83R HX  99
HARRISON       SUNNY     88  68  51 S10       29.91S HX  91
BENTONVILLE    SUNNY     89  69  51 S12       29.90R HX  93
SILOAM SPGS    SUNNY     90  70  51 S12       29.88R HX  95
HIGHFILL       SUNNY     90  69  50 S13       29.88S HX  94
SPRINGDALE     SUNNY     90  70  51 S12       29.90S HX  95
$$

ARZ004-005-016-210000-
NORTH CENTRAL ARKANSAS

CITY           SKY/WX    TMP DP  RH WIND       PRES   REMARKS
BATESVILLE     SUNNY    N/A N/A N/A S7        29.91S
FLIPPIN        MOSUNNY   91  71  51 S8        29.88S HX  97
MTN HOME       CLOUDY    88  71  57 S7        29.89R HX  94
$$

ARZ040-041-210000-
WEST CENTRAL ARKANSAS

CITY           SKY/WX    TMP DP  RH WIND       PRES   REMARKS
MOUNT IDA      MOSUNNY   89  65  44 VRB5      29.89S HX  91
$$

ARZ017-025-026-028-210000-
NORTHEAST ARKANSAS

CITY           SKY/WX    TMP DP  RH WIND       PRES   REMARKS
JONESBORO      SUNNY     89  74  60 S8        29.91S HX  98
NEWPORT        SUNNY     90  69  50 S13       29.91S HX  94
BLYTHEVILLE    SUNNY     87  75  67 S7        29.94R HX  96
$$

ARZ022-033-042-044-210000-
CENTRAL ARKANSAS

CITY           SKY/WX    TMP DP  RH WIND       PRES   REMARKS
LITTLE ROCK    MOSUNNY   88  72  58 S10       29.91R HX  94
JACKSONVILLE   SUNNY     91  72  54 S9        29.90S HX  98
SEARCY         SUNNY     89  74  60 S7        29.92S HX  98
HOT SPRINGS    MOSUNNY   91  69  48 S8        29.90S HX  96
RUSSELLVILLE   SUNNY     92  67  43 S9        29.86S HX  95
$$

ARZ036-210000-
EAST ARKANSAS

CITY           SKY/WX    TMP DP  RH WIND       PRES   REMARKS
WEST MEMPHIS   MOSUNNY   87  73  62 S6        29.92S HX  94
$$

ARZ050-070-073-210000-
SOUTHWEST ARKANSAS

CITY           SKY/WX    TMP DP  RH WIND       PRES   REMARKS
TEXARKANA      SUNNY     90  70  51 S7        29.88S HX  95
EL DORADO      SUNNY     89  74  60 SE7       29.92R HX  98
DEQUEEN        SUNNY     91  72  53 S7        29.85S HX  98
$$

ARZ056-057-069-210000-
SOUTHEAST ARKANSAS

CITY           SKY/WX    TMP DP  RH WIND       PRES   REMARKS
PINE BLUFF     SUNNY     88  72  58 S6        29.92S HX  94
STUTTGART      SUNNY     90  71  53 S13       29.92S HX  96
MONTICELLO     SUNNY     87  73  62 S5        29.93S HX  94
$$





USA.gov is the U.S. government's official web portal to all federal, state and local government web resources and services.